Location: Ambatotampy
(18.8181°S, 47.6186°E)
Time: 00:16:07
(UTC+00:00)

Cosmos 1544 Rocket - Pass Details

Date: 21 January 2021
Orbit: 605 x 630 km, 82.5° (Epoch: 24 February)

Event Time Altitude Azimuth Distance (km) Brightness Sun altitude
Rises 01:38:33 0° 184° (S) 2,909 7.3 -11.7°
Reaches altitude 10° 01:40:48 10° 182° (S) 1,993 6.5 -11.2°
Maximum altitude 01:45:13 82° 96° (E) 626 3.7 -10.3°
Drops below altitude 10° 01:49:33 10° 7° (N) 1,956 5.9 -9.4°
Sets 01:51:44 0° 6° (N) 2,850 6.8 -8.9°
